TimeEDT,TemperatureF,Dew PointF,Humidity,Sea Level PressureIn,VisibilityMPH,Wind Direction,Wind SpeedMPH,Gust SpeedMPH,PrecipitationIn,Events,Conditions,WindDirDegrees,DateUTC
12:51 AM,59.0,51.1,75,29.87,10.0,NNE,11.5,-,N/A,,Partly Cloudy,30,2012-10-28 04:51:00
1:51 AM,60.1,46.0,60,29.86,10.0,NE,12.7,-,N/A,,Mostly Cloudy,50,2012-10-28 05:51:00
2:51 AM,60.1,48.0,64,29.85,10.0,NE,12.7,-,N/A,,Mostly Cloudy,40,2012-10-28 06:51:00
3:51 AM,60.1,48.9,67,29.85,10.0,ENE,11.5,-,N/A,,Overcast,60,2012-10-28 07:51:00
4:51 AM,57.0,51.1,81,29.84,10.0,NE,13.8,-,0.01,Rain,Light Rain,50,2012-10-28 08:51:00
5:51 AM,55.9,50.0,80,29.82,10.0,NNE,11.5,-,0.00,Rain,Light Rain,30,2012-10-28 09:51:00
6:51 AM,55.0,48.0,77,29.81,10.0,NE,10.4,-,0.03,Rain,Light Rain,40,2012-10-28 10:51:00
7:51 AM,54.0,48.9,83,29.83,8.0,NNE,12.7,-,0.08,Rain,Light Rain,20,2012-10-28 11:51:00
8:51 AM,54.0,50.0,86,29.83,10.0,North,11.5,-,0.08,Rain,Light Rain,10,2012-10-28 12:51:00
9:51 AM,54.0,48.0,80,29.82,10.0,NNE,12.7,-,0.02,Rain,Light Rain,20,2012-10-28 13:51:00
10:47 AM,53.6,46.4,77,29.79,10.0,NNE,15.0,-,0.00,,Overcast,20,2012-10-28 14:47:00
10:51 AM,54.0,46.9,77,29.79,10.0,NNE,13.8,-,0.00,,Overcast,20,2012-10-28 14:51:00
11:27 AM,55.4,46.4,72,29.79,10.0,NNE,16.1,23.0,N/A,,Mostly Cloudy,30,2012-10-28 15:27:00
11:51 AM,55.4,46.4,72,29.77,10.0,NNE,16.1,-,N/A,,Overcast,30,2012-10-28 15:51:00
12:51 PM,57.0,48.0,72,29.74,10.0,NNE,12.7,25.3,N/A,,Mostly Cloudy,30,2012-10-28 16:51:00
1:51 PM,57.9,48.9,72,29.73,10.0,NE,17.3,24.2,N/A,,Overcast,50,2012-10-28 17:51:00
2:51 PM,55.9,50.0,80,29.70,4.0,NE,16.1,24.2,0.02,Rain,Rain,40,2012-10-28 18:51:00
3:05 PM,55.4,50.0,82,29.71,6.0,NE,15.0,24.2,0.01,Rain,Light Rain,40,2012-10-28 19:05:00
3:51 PM,55.0,52.0,89,29.70,6.0,NE,10.4,-,0.10,Rain,Light Rain,40,2012-10-28 19:51:00
4:51 PM,55.0,51.1,86,29.68,10.0,NNE,13.8,-,0.03,Rain,Light Rain,20,2012-10-28 20:51:00
5:51 PM,55.0,51.1,86,29.68,10.0,NE,17.3,23.0,0.07,Rain,Light Rain,40,2012-10-28 21:51:00
6:51 PM,55.0,52.0,89,29.66,10.0,NNE,17.3,28.8,0.06,Rain,Light Rain,30,2012-10-28 22:51:00
7:51 PM,55.0,51.1,86,29.66,6.0,NE,21.9,31.1,0.03,Rain,Rain,40,2012-10-28 23:51:00
8:51 PM,55.0,52.0,89,29.63,4.0,NNE,23.0,31.1,0.08,Rain,Heavy Rain,30,2012-10-29 00:51:00
9:51 PM,55.0,51.1,86,29.62,6.0,NNE,20.7,33.4,0.14,Rain,Rain,20,2012-10-29 01:51:00
10:51 PM,55.9,51.1,84,29.61,10.0,North,18.4,29.9,0.01,Rain,Light Rain,10,2012-10-29 02:51:00
11:16 PM,55.4,51.8,88,29.61,10.0,NNE,21.9,26.5,0.02,Rain,Light Rain,20,2012-10-29 03:16:00
11:51 PM,55.0,50.0,83,29.59,10.0,NNE,18.4,24.2,0.02,,Mostly Cloudy,30,2012-10-29 03:51:00